Location: Novokuznetsk
(53.7500°N, 87.1000°E)
Time: 23:07:11
(UTC+06:00)

ISS - Pass Details

Date: 25 May 2021
Orbit: 417 x 422 km, 51.6° (Epoch: 16 June)

Event Time Altitude Azimuth Distance (km) Brightness Sun altitude
Rises 23:10:21 0° 277° (W) 2,369 0.3 -14.1°
Reaches altitude 10° 23:13:03 10° 254° (WSW) 1,503 -1.0 -14.2°
Enters shadow 23:14:51 15° 221° (SW) 1,225 -1.7 -14.3°
